Hourly Data Report for February 02, 2003

TORONTO CITY
ONTARIO

43°40'00.000" N
79°24'00.000" W
112.50 m
6158355
71508
XTO

Download Data

Hourly Data (February 2003)
Hourly Data Report for February 2, 2003
TIME
LST
Temp Definition
°C
Dew Point Definition
°C
Rel Hum Definition
%
Precip. Amount Definition
mm

Wind Dir Definition
10's deg

Wind Spd Definition
km/h
Visibility Definition
km
Stn Press Definition
kPa
Hmdx Definition


Wind Chill Definition


Weather Definition


00:00 2.8 0.7 86     0 LegendMM 99.69     LegendNANA
01:00
02:00 2.4 0.5 87     0 LegendMM 99.72     LegendNANA
03:00 2.2 0.3 87     0 LegendMM 99.74     LegendNANA
04:00 2.0 -1.0 80     0 LegendMM 99.76     LegendNANA
05:00 1.3 -2.2 77     0 LegendMM 99.78     LegendNANA
06:00 1.1 -2.4 77     0 LegendMM 99.80     LegendNANA
07:00 0.9 -3.1 75     0 LegendMM 99.82     LegendNANA
08:00 0.7 -3.0 76     0 LegendMM 99.85     LegendNANA
09:00 1.0 -2.1 80     0 LegendMM 99.85     LegendNANA
10:00 1.6 -1.7 79     0 LegendMM 99.83     LegendNANA
11:00 2.1 -1.2 79     0 LegendMM 99.86     LegendNANA
12:00 2.8 -1.1 75     0 LegendMM 99.82     LegendNANA
13:00 3.8 -1.1 70     0 LegendMM 99.81     LegendNANA
14:00 4.3 -1.0 68     0 LegendMM 99.79     LegendNANA
15:00 3.4 -1.3 71     0 LegendMM 99.85     LegendNANA
16:00
17:00 1.9 -1.4 79     0 LegendMM 99.92     LegendNANA
18:00 1.8 -1.5 79     0 LegendMM 100.00     LegendNANA
19:00 0.8 -2.0 82     0 LegendMM 100.06     LegendNANA
20:00 0.9 -2.2 80     0 LegendMM 100.08     LegendNANA
21:00 1.1 -2.4 77     0 LegendMM 100.09     LegendNANA
22:00 0.3 -2.5 81     0 LegendMM 100.09     LegendNANA
23:00 -0.1 -2.9 81     0 LegendMM 100.13     LegendNANA

Notes on Data Quality.

Legend

  • E = Estimated
  • M = Missing
  • NA = Not Available*
  • [empty] = Indicates an unobserved value
Date modified: